LUDI TANCE-4 01A

Last updated on Thu Jul 03 2025 00:02:49 GMT+0000 (Coordinated Universal Time)

1 57624U 23120A 25183.63977874 -.00000164 00000+0 00000+0 0 9992 2 57624 15.3704 202.5627 0000560 263.5881 134.7547 1.00271330 7043
UTC large
Height (km)
Speed (km/s)
/
Latitude / Longitude
Inclination (degrees)
Orbital Period (minutes)
Azimuth
Elevation
Range (km)
Doppler Factor

Next 0 passes for location: London (51.5072 / 0.1276)

Sorry there are no passes over London.